GW4974 Weather Reports


time (UTC)temp
C
wind
direction
speed
KPH
gust
KPH
rain 1hr
cm
rain 24hr
cm
rain mn
cm
humidity
%
barometer
mb
20260507105242 4 252 1.6 3.2 0.00 0.00 0.00 77 1014.2
20260507104740 4 237 1.6 3.2 0.00 0.00 0.00 78 1014.3
20260507104236 3 279 3.2 3.2 0.00 0.00 0.00 79 1014.2
20260507103732 3 288 1.6 4.8 0.00 0.00 0.00 83 1014.2
20260507103228 3 263 1.6 3.2 0.00 0.00 0.00 87 1014.2
20260507102725 3 110 0.0 3.2 0.00 0.00 0.00 86 1014.0
20260507102221 3 150 1.6 3.2 0.00 0.00 0.00 81 1013.8
20260507101717 3 212 0.0 3.2 0.00 0.00 0.00 81 1014.0
20260507101212 3 250 0.0 3.2 0.00 0.00 0.00 80 1014.0
20260507100710 3 218 3.2 4.8 0.00 0.00 0.00 80 1013.9
20260507100209 4 207 0.0 3.2 0.00 0.00 0.00 82 1013.9
20260507095707 4 234 0.0 4.8 0.00 0.00 0.00 83 1013.9
20260507095203 4 224 0.0 3.2 0.00 0.00 0.00 82 1013.8
20260507094659 4 178 3.2 3.2 0.00 0.00 0.00 84 1014.0
20260507094155 4 174 3.2 3.2 0.00 0.00 0.00 83 1013.9
20260507093653 5 237 0.0 4.8 0.00 0.00 0.00 83 1013.9
20260507093152 5 268 3.2 6.4 0.00 0.00 0.00 78 1013.7
20260507092649 5 236 1.6 4.8 0.00 0.00 0.00 81 1013.9
20260507092145 5 252 3.2 4.8 0.00 0.00 0.00 75 1013.7
20260507091641 5 221 0.0 4.8 0.00 0.00 0.00 73 1013.8
20260507091137 5 228 0.0 3.2 0.00 0.00 0.00 76 1013.7
20260507090633 5 262 3.2 4.8 0.00 0.00 0.00 78 1013.8
20260507090131 5 231 3.2 3.2 0.00 0.00 0.00 76 1013.8
20260507085628 5 308 0.0 3.2 0.00 0.00 0.00 71 1013.7
20260507085124 5 356 0.0 3.2 0.00 0.00 0.00 71 1013.5
20260507084621 5 250 3.2 4.8 0.00 0.00 0.00 71 1013.5
20260507084118 5 165 0.0 4.8 0.00 0.00 0.00 70 1013.6
20260507083614 5 195 0.0 6.4 0.00 0.00 0.00 70 1013.6
20260507083112 6 284 3.2 4.8 0.00 0.00 0.00 69 1013.7
20260507082607 6 232 0.0 3.2 0.00 0.00 0.00 70 1013.7
20260507082104 6 200 1.6 3.2 0.00 0.00 0.00 69 1013.8
20260507081600 6 241 1.6 3.2 0.00 0.00 0.00 69 1013.8
20260507081057 6 220 3.2 4.8 0.00 0.00 0.00 68 1013.8
20260507080553 6 250 1.6 4.8 0.00 0.00 0.00 73 1013.7
20260507080050 6 218 1.6 4.8 0.00 0.00 0.00 69 1013.8
20260507075545 6 225 1.6 4.8 0.00 0.00 0.00 68 1013.7
20260507075041 7 117 1.6 3.2 0.00 0.00 0.00 68 1014.0
20260507074538 7 356 1.6 4.8 0.00 0.00 0.00 68 1013.9
20260507074032 7 192 0.0 3.2 0.00 0.00 0.00 69 1013.8
20260507073527 7 133 3.2 3.2 0.00 0.00 0.00 67 1013.9
20260507073024 7 261 0.0 1.6 0.00 0.00 0.00 67 1013.7
20260507072522 7 261 0.0 3.2 0.00 0.00 0.00 67 1013.7
20260507072019 7 250 0.0 3.2 0.00 0.00 0.00 67 1013.7
20260507071516 7 75 1.6 3.2 0.00 0.00 0.00 68 1013.5
20260507071012 7 239 0.0 3.2 0.00 0.00 0.00 67 1013.5
20260507070510 7 103 0.0 6.4 0.00 0.00 0.00 65 1013.6
20260507070010 7 116 0.0 3.2 0.00 0.00 0.00 67 1013.8
20260507065503 7 169 1.6 3.2 0.00 0.00 0.00 73 1013.6
20260507065000 7 235 3.2 3.2 0.00 0.00 0.00 68 1013.6
20260507064458 7 254 1.6 4.8 0.00 0.00 0.00 69 1013.7
20260507063956 7 238 0.0 6.4 0.00 0.00 0.00 70 1013.9
20260507063452 7 42 0.0 6.4 0.00 0.00 0.00 67 1013.9
20260507062950 7 184 0.0 3.2 0.00 0.00 0.00 69 1013.9
20260507062447 7 213 3.2 6.4 0.00 0.00 0.00 65 1013.9
20260507061944 7 103 1.6 3.2 0.00 0.00 0.00 69 1013.9
20260507061442 7 230 3.2 3.2 0.00 0.00 0.00 72 1014.1
20260507060940 7 235 0.0 4.8 0.00 0.00 0.00 69 1014.0
20260507060437 7 60 1.6 4.8 0.00 0.00 0.00 70 1014.1
20260507055933 7 101 1.6 4.8 0.00 0.00 0.00 71 1014.0
20260507055429 7 198 1.6 3.2 0.00 0.00 0.00 70 1014.0
20260507054926 7 238 0.0 4.8 0.00 0.00 0.00 71 1013.8
20260507054422 7 226 1.6 3.2 0.00 0.00 0.00 67 1013.9
20260507053919 7 150 1.6 3.2 0.00 0.00 0.00 67 1014.0
20260507053417 8 195 0.0 4.8 0.00 0.00 0.00 70 1014.0
20260507052915 8 226 1.6 3.2 0.00 0.00 0.00 69 1014.0
20260507052412 8 241 0.0 3.2 0.00 0.00 0.00 70 1013.8
20260507051903 8 251 0.0 3.2 0.00 0.00 0.00 71 1014.0
20260507051401 8 120 3.2 3.2 0.00 0.00 0.00 65 1014.1
20260507050858 8 105 3.2 3.2 0.00 0.00 0.00 64 1014.0
20260507050354 8 37 0.0 3.2 0.00 0.00 0.00 67 1014.1
20260507045851 8 229 0.0 4.8 0.00 0.00 0.00 62 1014.3
20260507045347 8 168 0.0 4.8 0.00 0.00 0.00 64 1014.1
20260507044845 8 157 0.0 3.2 0.00 0.00 0.00 68 1014.2
20260507044341 8 196 0.0 9.7 0.00 0.00 0.00 64 1014.2
20260507043837 8 154 0.0 6.4 0.00 0.00 0.00 62 1014.2
20260507043333 8 236 3.2 3.2 0.00 0.00 0.00 65 1013.9
20260507042830 8 322 3.2 6.4 0.00 0.00 0.00 63 1014.0
20260507042326 8 193 0.0 4.8 0.00 0.00 0.00 65 1013.6
20260507041823 8 225 3.2 6.4 0.00 0.00 0.00 66 1013.5
20260507041319 8 183 0.0 6.4 0.00 0.00 0.00 65 1014.0
20260507040817 8 178 0.0 4.8 0.00 0.00 0.00 71 1013.8
20260507040313 8 251 0.0 3.2 0.00 0.00 0.00 67 1013.8
20260507035809 8 229 3.2 4.8 0.00 0.51 0.51 65 1014.0
20260507035306 8 231 0.0 4.8 0.00 0.51 0.51 69 1014.2
20260507034803 8 78 1.6 3.2 0.00 0.51 0.51 69 1013.8
20260507034259 8 217 0.0 4.8 0.00 0.51 0.51 71 1013.9
20260507033757 8 258 0.0 3.2 0.00 0.51 0.51 72 1013.6
20260507033255 8 309 0.0 4.8 0.00 0.51 0.51 73 1013.7
20260507032751 9 258 0.0 4.8 0.00 0.51 0.51 75 1013.6
20260507032247 9 295 0.0 4.8 0.00 0.51 0.51 73 1013.7
20260507031744 9 226 3.2 4.8 0.00 0.51 0.51 74 1013.7
20260507031241 9 122 0.0 3.2 0.00 0.51 0.51 82 1013.6
20260507030738 9 190 3.2 4.8 0.00 0.51 0.51 82 1013.6
20260507030235 9 106 3.2 4.8 0.00 0.51 0.51 77 1013.7
20260507025732 9 130 3.2 4.8 0.00 0.51 0.51 78 1013.6
20260507025229 9 98 3.2 4.8 0.00 0.51 0.51 81 1013.8
20260507024728 9 69 0.0 1.6 0.00 0.51 0.51 80 1013.8
20260507024224 9 292 0.0 3.2 0.00 0.51 0.51 80 1013.7
20260507023720 9 66 1.6 3.2 0.00 0.51 0.51 80 1013.3
20260507023217 9 60 0.0 3.2 0.00 0.51 0.51 81 1013.1
20260507022715 10 121 1.6 4.8 0.00 0.51 0.51 79 1013.3
20260507022210 10 108 0.0 3.2 0.00 0.51 0.51 83 1013.4
20260507021707 9 175 1.6 3.2 0.00 0.51 0.51 83 1013.4
20260507021202 10 281 0.0 3.2 0.00 0.51 0.51 82 1013.2
20260507020701 10 93 0.0 1.6 0.00 0.51 0.51 81 1013.3
20260507020156 10 103 0.0 1.6 0.00 0.51 0.51 79 1013.5
20260507015655 10 14 0.0 3.2 0.00 0.51 0.51 79 1013.7
20260507015152 10 97 0.0 4.8 0.00 0.51 0.51 81 1013.7
20260507014648 10 72 0.0 3.2 0.00 0.51 0.51 85 1013.6
20260507014144 10 40 0.0 3.2 0.00 0.51 0.51 85 1013.8
20260507013641 10 245 0.0 1.6 0.00 0.51 0.51 85 1013.7
20260507013138 10 229 0.0 0.0 0.00 0.51 0.51 85 1013.8
20260507012636 10 259 1.6 3.2 0.00 0.51 0.51 85 1013.8
20260507012131 10 269 0.0 1.6 0.00 0.51 0.51 86 1013.6
20260507011630 10 301 0.0 0.0 0.00 0.51 0.51 86 1013.8
20260507011125 10 239 0.0 3.2 0.00 0.51 0.51 82 1013.4
20260507010620 10 44 0.0 1.6 0.00 0.51 0.51 83 1013.4
20260507010116 10 330 0.0 3.2 0.00 0.51 0.51 84 1013.6
20260507005614 10 113 0.0 3.2 0.00 0.51 0.51 85 1013.7
20260507005110 10 76 0.0 1.6 0.00 0.51 0.51 85 1013.7
20260507004607 10 76 0.0 3.2 0.00 0.51 0.51 83 1013.6
20260507004104 10 58 0.0 1.6 0.00 0.51 0.51 83 1013.4
20260507003600 10 266 1.6 6.4 0.00 0.51 0.51 83 1013.5
20260507003055 10 112 1.6 1.6 0.00 0.51 0.51 84 1013.2
20260507002552 10 76 1.6 3.2 0.00 0.51 0.51 83 1013.2
20260507002048 11 89 0.0 1.6 0.00 0.51 0.51 83 1013.1
20260507001545 11 87 1.6 3.2 0.00 0.51 0.51 83 1013.0
20260507001042 11 68 3.2 4.8 0.00 0.51 0.51 84 1012.9
20260507000538 11 104 1.6 3.2 0.00 0.51 0.51 84 1012.8
20260507000028 11 184 0.0 3.2 0.00 0.51 0.51 83 1012.7
20260506235525 11 124 1.6 4.8 0.00 0.51 0.51 83 1012.7
20260506235015 11 259 0.0 3.2 0.00 0.51 0.51 84 1012.5
20260506234513 11 114 0.0 3.2 0.00 0.51 0.51 85 1012.3
20260506234010 11 287 1.6 4.8 0.00 0.51 0.51 85 1012.1
20260506233507 11 68 1.6 3.2 0.00 0.51 0.51 84 1012.2
20260506233004 11 300 0.0 4.8 0.00 0.51 0.51 85 1012.3
20260506232500 11 136 0.0 4.8 0.00 0.51 0.51 85 1012.2
20260506231955 11 85 3.2 4.8 0.00 0.51 0.51 86 1012.0
20260506231453 11 89 3.2 4.8 0.00 0.51 0.51 85 1012.0
20260506230950 11 81 1.6 3.2 0.00 0.51 0.51 86 1012.0
20260506230445 11 64 0.0 3.2 0.00 0.51 0.51 85 1012.1
20260506225937 11 167 0.0 4.8 0.00 0.51 0.51 85 1012.0
20260506225435 11 46 0.0 3.2 0.00 0.51 0.51 87 1012.2
20260506224931 12 231 0.0 3.2 0.00 0.51 0.51 85 1011.9
20260506224429 12 93 3.2 4.8 0.00 0.51 0.51 85 1011.6
20260506223925 12 105 1.6 6.4 0.00 0.51 0.51 84 1011.9
20260506223420 12 100 3.2 3.2 0.00 0.51 0.51 85 1011.7
20260506222918 12 113 0.0 3.2 0.00 0.51 0.51 85 1011.5
20260506222414 12 124 0.0 3.2 0.00 0.51 0.51 84 1011.3
20260506221912 12 76 0.0 4.8 0.00 0.51 0.51 84 1011.3
20260506221409 12 140 0.0 3.2 0.00 0.51 0.51 84 1011.1
20260506220906 12 95 3.2 4.8 0.00 0.51 0.51 84 1011.3
20260506220401 13 339 3.2 4.8 0.00 0.51 0.51 85 1011.2
20260506215858 13 122 0.0 3.2 0.00 0.51 0.51 85 1011.1
20260506215353 13 59 0.0 3.2 0.00 0.51 0.51 85 1011.2
20260506214850 13 42 0.0 4.8 0.00 0.51 0.51 84 1011.0
20260506214347 13 106 3.2 3.2 0.00 0.51 0.51 84 1011.1
20260506213845 13 57 0.0 3.2 0.00 0.51 0.51 83 1010.7
20260506213342 13 54 1.6 8.0 0.00 0.51 0.51 83 1010.8
20260506212839 14 104 3.2 3.2 0.00 0.51 0.51 81 1010.5
20260506212335 14 97 1.6 3.2 0.00 0.51 0.51 82 1010.4
20260506211830 14 144 1.6 3.2 0.00 0.51 0.51 81 1010.1
20260506211326 14 129 0.0 1.6 0.00 0.51 0.51 82 1010.2
20260506210824 15 128 1.6 3.2 0.00 0.51 0.51 82 1010.1
20260506210320 15 358 0.0 3.2 0.00 0.51 0.51 82 1010.2
20260506205817 15 64 3.2 4.8 0.00 0.51 0.51 81 1010.1
20260506205313 15 86 3.2 4.8 0.00 0.51 0.51 81 1009.9
20260506204810 15 235 0.0 3.2 0.00 0.51 0.51 82 1009.9
20260506204308 15 102 1.6 1.6 0.00 0.51 0.51 82 1009.8
20260506203805 15 266 3.2 4.8 0.00 0.51 0.51 80 1009.7
20260506203302 15 227 0.0 8.0 0.00 0.51 0.51 80 1009.7
20260506202759 15 221 0.0 6.4 0.00 0.51 0.51 80 1009.6
20260506202256 16 315 0.0 6.4 0.00 0.51 0.51 83 1009.6
20260506201752 16 158 0.0 6.4 0.00 0.51 0.51 81 1009.4
20260506201249 16 137 3.2 6.4 0.00 0.51 0.51 81 1009.6
20260506200747 16 269 0.0 3.2 0.00 0.51 0.51 81 1009.3
20260506200243 16 191 0.0 8.0 0.00 0.51 0.51 79 1009.2
20260506195739 16 277 3.2 4.8 0.00 0.51 0.51 84 1009.2
20260506195236 16 235 0.0 6.4 0.00 0.51 0.51 83 1009.0
20260506194728 16 260 3.2 4.8 0.00 0.51 0.51 85 1009.0
20260506194224 15 57 1.6 3.2 0.00 0.51 0.51 90 1009.0
20260506193722 15 271 1.6 3.2 0.00 0.51 0.51 90 1009.2
20260506193219 15 96 0.0 6.4 0.00 0.51 0.51 90 1009.0
20260506192715 15 193 0.0 3.2 0.00 0.51 0.51 91 1008.8
20260506192212 16 126 3.2 4.8 0.00 0.51 0.51 90 1008.8
20260506191709 16 119 1.6 3.2 0.00 0.51 0.51 91 1008.9
20260506191205 16 251 1.6 6.4 0.00 0.51 0.51 91 1008.9
20260506190703 16 98 3.2 3.2 0.00 0.51 0.51 91 1009.1
20260506190159 16 116 3.2 4.8 0.00 0.51 0.51 91 1008.9
20260506185656 16 271 1.6 4.8 0.00 0.51 0.51 92 1008.8
20260506185152 15 114 1.6 3.2 0.00 0.51 0.51 94 1009.0
20260506184650 15 97 3.2 3.2 0.00 0.51 0.51 96 1009.1
20260506184147 15 205 0.0 1.6 0.00 0.51 0.51 96 1008.8
20260506183643 15 219 0.0 0.0 0.00 0.51 0.51 96 1009.1
20260506183139 15 99 6.4 6.4 0.00 0.51 0.51 97 1009.0
20260506182637 15 60 0.0 3.2 0.00 0.51 0.51 97 1009.0
20260506182133 15 224 0.0 3.2 0.00 0.51 0.51 97 1009.0
20260506181631 15 243 0.0 3.2 0.00 0.51 0.51 97 1009.0
20260506181128 15 60 0.0 3.2 0.05 0.51 0.51 98 1009.0
20260506180625 15 126 1.6 3.2 0.18 0.51 0.51 98 1008.9
20260506180121 15 101 1.6 4.8 0.05 0.48 0.48 97 1009.1
20260506175618 15 257 3.2 3.2 0.00 0.46 0.46 97 1008.9
20260506175114 15 273 3.2 4.8 0.00 0.46 0.46 96 1008.6
20260506174613 15 218 0.0 3.2 0.00 0.46 0.46 95 1008.8
20260506174109 15 291 3.2 4.8 0.00 0.46 0.46 95 1008.9
20260506173607 15 209 0.0 3.2 0.00 0.46 0.46 94 1008.9
20260506173103 15 193 0.0 4.8 0.00 0.46 0.46 95 1008.9
20260506172601 15 128 0.0 3.2 0.00 0.46 0.46 94 1008.8
20260506172051 15 279 1.6 4.8 0.00 0.46 0.46 94 1008.9
20260506171548 15 13 1.6 3.2 0.00 0.46 0.46 94 1008.6
20260506171046 16 268 1.6 4.8 0.00 0.46 0.46 94 1008.9
20260506170543 16 75 3.2 3.2 0.00 0.46 0.46 93 1008.5
20260506170041 16 261 0.0 3.2 0.00 0.46 0.46 92 1008.3
20260506165539 16 230 0.0 1.6 0.00 0.46 0.46 92 1008.5
20260506165035 16 166 0.0 3.2 0.00 0.46 0.46 92 1008.5
20260506164532 15 193 1.6 6.4 0.00 0.46 0.46 93 1008.5
20260506164029 15 89 0.0 6.4 0.00 0.46 0.46 93 1008.6
20260506163525 15 13 3.2 8.0 0.00 0.46 0.46 93 1008.9
20260506163021 15 81 3.2 3.2 0.00 0.46 0.46 93 1008.8
20260506162518 15 105 1.6 6.4 0.00 0.46 0.46 93 1008.8
20260506162009 15 348 0.0 3.2 0.00 0.46 0.46 94 1008.5
20260506161506 15 89 0.0 3.2 0.00 0.46 0.46 95 1008.9
20260506160958 15 50 0.0 3.2 0.00 0.46 0.46 96 1008.8
20260506160455 15 95 1.6 3.2 0.00 0.46 0.46 96 1008.5
20260506155952 15 244 0.0 1.6 0.00 0.46 0.46 97 1008.8
20260506155451 14 243 0.0 3.2 0.00 0.46 0.46 97 1008.5
20260506153622 14 214 0.0 3.2 0.00 0.46 0.46 98 1008.9
20260506153119 14 70 3.2 3.2 0.00 0.46 0.46 98 1008.6
20260506152616 14 83 0.0 3.2 0.00 0.46 0.46 98 1008.8
20260506152114 14 234 0.0 3.2 0.00 0.46 0.46 98 1008.4
20260506151612 14 113 0.0 3.2 0.00 0.46 0.46 98 1008.5
20260506151109 14 111 0.0 3.2 0.00 0.46 0.46 98 1008.5
20260506150606 14 247 0.0 3.2 0.00 0.46 0.46 98 1008.5
20260506145559 13 271 0.0 1.6 0.00 0.46 0.46 98 1008.3
20260506145057 13 93 3.2 3.2 0.00 0.46 0.46 98 1008.4
20260506144554 13 237 0.0 3.2 0.00 0.46 0.46 98 1008.4
20260506144050 13 338 0.0 4.8 0.00 0.46 0.46 98 1008.3
20260506143548 13 100 3.2 3.2 0.05 0.46 0.46 98 1008.4
20260506143046 13 89 3.2 3.2 0.13 0.46 0.46 98 1008.3
20260506142544 13 135 0.0 1.6 0.18 0.46 0.46 98 1008.4
20260506142042 13 220 0.0 3.2 0.05 0.43 0.43 98 1008.4
20260506141539 13 258 0.0 3.2 0.05 0.43 0.43 98 1008.5
20260506141037 13 243 0.0 1.6 0.05 0.43 0.43 98 1008.3
20260506140534 13 127 1.6 3.2 0.05 0.43 0.43 98 1008.0
20260506140032 13 108 0.0 3.2 0.05 0.43 0.43 98 1008.1
20260506135528 13 112 0.0 3.2 0.00 0.41 0.41 98 1008.4
20260506135024 13 278 0.0 3.2 0.05 0.41 0.41 98 1008.3
20260506134521 13 129 0.0 3.2 0.13 0.41 0.41 97 1008.3
20260506134017 13 99 0.0 3.2 0.13 0.41 0.41 97 1008.2
20260506133514 13 104 0.0 3.2 0.13 0.38 0.38 97 1008.4
20260506133011 13 72 0.0 3.2 0.05 0.38 0.38 97 1008.5
20260506132508 13 103 0.0 3.2 0.05 0.38 0.38 97 1008.4
20260506132006 13 124 0.0 3.2 0.13 0.38 0.38 97 1008.6
20260506131503 13 228 0.0 4.8 0.13 0.36 0.36 96 1008.6
20260506130959 13 250 0.0 4.8 0.18 0.36 0.36 97 1008.6
20260506130456 13 117 1.6 3.2 0.13 0.33 0.33 96 1008.4
20260506125953 13 327 0.0 3.2 0.00 0.33 0.33 97 1008.6
20260506125452 13 279 0.0 3.2 0.05 0.33 0.33 96 1008.8
20260506124949 13 133 1.6 3.2 0.13 0.33 0.33 96 1008.5
20260506124447 13 101 1.6 3.2 0.13 0.30 0.30 97 1008.4
20260506123945 13 119 0.0 3.2 0.13 0.30 0.30 97 1008.8
20260506123442 13 110 0.0 3.2 0.18 0.28 0.28 97 1008.5
20260506122940 13 293 0.0 3.2 0.13 0.28 0.28 97 1008.6
20260506122436 13 353 0.0 3.2 0.18 0.25 0.25 96 1008.9
20260506121935 13 267 0.0 3.2 0.18 0.23 0.23 96 1008.9
20260506121431 13 146 1.6 3.2 0.23 0.23 0.23 97 1008.9
20260506120928 13 166 0.0 3.2 0.23 0.20 0.20 97 1009.0
20260506120426 13 135 0.0 3.2 0.23 0.18 0.18 98 1009.1
20260506115923 13 73 0.0 3.2 0.23 0.18 0.18 97 1009.2
20260506115421 13 131 0.0 3.2 0.23 0.15 0.15 97 1009.3
20260506114919 13 84 0.0 1.6 0.18 0.13 0.13 97 1009.3
20260506114416 13 306 0.0 3.2 0.13 0.10 0.10 97 1009.2
20260506113915 13 167 0.0 1.6 0.13 0.10 0.10 97 1009.2
20260506113412 13 348 0.0 3.2 0.13 0.10 0.10 96 1009.1
20260506112908 13 283 3.2 3.2 0.05 0.08 0.08 96 1009.0
20260506112406 13 124 0.0 3.2 0.00 0.08 0.08 95 1008.8
20260506111903 13 31 0.0 3.2 0.05 0.08 0.08 95 1008.8
20260506111401 13 7 0.0 3.2 0.05 0.08 0.08 95 1008.9
20260506110858 13 304 0.0 3.2 0.00 0.05 0.05 95 1008.5
20260506110356 13 126 0.0 3.2 0.05 0.05 0.05 95 1008.5
20260506105852 13 126 0.0 3.2 0.05 0.05 0.05 94 1008.6